STARLINK-2043 (47659 NORAD) Tracking and Keplerian Element Data

This shows tracking and keplerian element data for the satellite.

Feedback or suggestion? Click here.




ElementValue
Catalog47659
NameSTARLINK-2043
Epoch Orbit282
Epoch Day60.16668981
Epoch Year2021
RAAN36.8159
Inclination53.0498
Eccentricity0.0007912
Argument of Perigee282.254
Mean Anonmoly205.5092
Mean Motion15.86756537
Decay Rate0.00053767
L11 47659U 21012AR 21060.16668981 .00053767 00000-0 20717-3 0 9999
L22 47659 53.0498 36.8159 0007912 282.2540 205.5092 15.86756537 2824

Live tracking and technical data element details for STARLINK-2043 (NORAD 47659). STARLINK-2043 can be tracked NOW for your location showing map with azimuth and elevation plus other details from your city location.

Track the satellite on the map from your city or location and see movement details for azimuth, elevation, latitude, longitude, range, height, and movement on the map or in text.







IsCatalogInMostPopularTable: catalog: 47659, numindb: 4
Update: records affected: 1



GetName: 47659 STARLINK-2043

Hit Count: updated at: Mon, 01 Mar 2021 15:52:00 GMT